sat.trackr.live / text

‹ back to catalog

STARLINK-4071

NORAD 52671 · 2022-053R

PAYLOAD ACTIVE UNKNOWN

§ Identity

Operator
Country
US
Launch date
2022-05-18
Launch site
AFETR
Launch vehicle
Mass (kg)
RCS (m²)

Purposes: comms

External: N2YO · Heavens-Above · Gunter

§ Orbital elements

Epoch: 2026-05-25T02:01:35.863104Z

Period
95.44 min
Inclination
53.2146°
Eccentricity
0.0001024
Mean motion
15.08839372 rev/d
Perigee alt
539.0 km
Apogee alt
540.5 km
Semi-major
6,917.9 km
B*
3.8259e-5
RAAN
171.1700°
Arg perigee
97.5959°
Mean anomaly
262.5149°
Rev number
22,257

§ Raw data

STARLINK-40711 52671U 22053R   26145.08444286  .00000321  00000+0  38259-4 0  99932 52671  53.2146 171.1700 0001024  97.5959 262.5149 15.08839372222575

JSON: /api/v1/satellites/52671 · /tle

For live sub-satellite position, see the globe view (requires WebGL).

§ Visibility from observer

Set your observer location to see the next 7 days of passes ≥ 10°. The values pass through the URL so the page stays shareable.

No JS? Fill the form by hand. The geolocation button needs JavaScript.